| time (UTC) | temp F | wind direction | speed knots | gust knots | rain 1hr in | rain 24hr in | rain mn in | humidity % | barometer mb |
| 20260507213321 | 87 | 332 | 1.7 | 7.8 | 0.00 | 0.00 | 0.00 | 77 | 1016.1 |
| 20260507212321 | 87 | 358 | 2.6 | 6.1 | 0.00 | 0.00 | 0.00 | 77 | 1016.1 |
| 20260507211336 | 87 | 282 | 4.3 | 8.7 | 0.00 | 0.00 | 0.00 | 79 | 1016.1 |
| 20260507210342 | 87 | 285 | 2.6 | 8.7 | 0.00 | 0.00 | 0.00 | 79 | 1016.3 |
| 20260507205324 | 88 | 298 | 4.3 | 7.0 | 0.00 | 0.00 | 0.00 | 78 | 1016.2 |
| 20260507204323 | 88 | 295 | 3.5 | 7.8 | 0.00 | 0.00 | 0.00 | 76 | 1016.4 |
| 20260507203319 | 88 | 280 | 0.9 | 6.1 | 0.00 | 0.00 | 0.00 | 76 | 1016.4 |
| 20260507202335 | 87 | 276 | 3.5 | 7.0 | 0.00 | 0.00 | 0.00 | 77 | 1016.5 |
| 20260507201330 | 89 | 17 | 0.0 | 4.3 | 0.00 | 0.00 | 0.00 | 75 | 1016.5 |
| 20260507200342 | 88 | 226 | 0.0 | 6.1 | 0.00 | 0.00 | 0.00 | 77 | 1016.5 |
| 20260507195324 | 88 | 270 | 1.7 | 6.1 | 0.00 | 0.00 | 0.00 | 77 | 1016.6 |
| 20260507194341 | 87 | 259 | 2.6 | 7.8 | 0.00 | 0.00 | 0.00 | 78 | 1016.7 |
| 20260507193320 | 88 | 349 | 1.7 | 6.1 | 0.00 | 0.00 | 0.00 | 78 | 1016.8 |
| 20260507192337 | 88 | 323 | 1.7 | 6.1 | 0.00 | 0.00 | 0.00 | 78 | 1016.8 |
| 20260507191332 | 87 | 18 | 1.7 | 7.8 | 0.00 | 0.00 | 0.00 | 80 | 1016.9 |
| 20260507190339 | 87 | 292 | 3.5 | 7.0 | 0.00 | 0.00 | 0.00 | 79 | 1017.1 |
| 20260507185345 | 86 | 308 | 5.2 | 8.7 | 0.00 | 0.00 | 0.00 | 80 | 1017.2 |
| 20260507184319 | 86 | 263 | 3.5 | 8.7 | 0.00 | 0.00 | 0.00 | 82 | 1017.3 |
| 20260507183335 | 86 | 268 | 4.3 | 7.8 | 0.00 | 0.00 | 0.00 | 80 | 1017.4 |
| 20260507182330 | 87 | 279 | 2.6 | 7.8 | 0.00 | 0.00 | 0.00 | 80 | 1017.4 |
| 20260507181329 | 86 | 284 | 5.2 | 8.7 | 0.00 | 0.00 | 0.00 | 80 | 1017.5 |
| 20260507180355 | 86 | 253 | 4.3 | 9.6 | 0.00 | 0.00 | 0.00 | 81 | 1017.7 |
| 20260507175317 | 87 | 309 | 4.3 | 10.4 | 0.00 | 0.00 | 0.00 | 80 | 1017.7 |
| 20260507174332 | 87 | 287 | 2.6 | 7.8 | 0.00 | 0.00 | 0.00 | 80 | 1017.9 |
| 20260507173332 | 87 | 326 | 3.5 | 8.7 | 0.00 | 0.00 | 0.00 | 80 | 1018.1 |
| 20260507172329 | 86 | 312 | 4.3 | 7.8 | 0.00 | 0.00 | 0.00 | 80 | 1018.2 |
| 20260507171324 | 87 | 246 | 3.5 | 7.8 | 0.00 | 0.00 | 0.00 | 81 | 1018.3 |
| 20260507170334 | 87 | 268 | 4.3 | 7.8 | 0.00 | 0.00 | 0.00 | 80 | 1018.4 |
| 20260507165336 | 87 | 262 | 2.6 | 7.0 | 0.00 | 0.00 | 0.00 | 80 | 1018.4 |
| 20260507164332 | 87 | 255 | 3.5 | 7.0 | 0.00 | 0.00 | 0.00 | 79 | 1018.5 |
| 20260507163331 | 86 | 222 | 3.5 | 7.8 | 0.00 | 0.00 | 0.00 | 80 | 1018.6 |
| 20260507162328 | 85 | 359 | 2.6 | 7.8 | 0.00 | 0.00 | 0.00 | 81 | 1018.8 |
| 20260507161324 | 86 | 238 | 3.5 | 7.0 | 0.00 | 0.00 | 0.00 | 82 | 1018.8 |
| 20260507160350 | 86 | 243 | 5.2 | 7.8 | 0.00 | 0.00 | 0.00 | 82 | 1018.8 |
| 20260507155336 | 86 | 352 | 1.7 | 7.0 | 0.00 | 0.00 | 0.00 | 83 | 1018.8 |
| 20260507154330 | 85 | 318 | 2.6 | 7.0 | 0.00 | 0.00 | 0.00 | 82 | 1018.8 |
| 20260507153326 | 85 | 280 | 2.6 | 7.0 | 0.00 | 0.00 | 0.00 | 84 | 1018.8 |
| 20260507152343 | 86 | 258 | 3.5 | 7.8 | 0.00 | 0.00 | 0.00 | 81 | 1018.8 |
| 20260507151322 | 86 | 322 | 2.6 | 6.1 | 0.00 | 0.00 | 0.00 | 82 | 1019.0 |
| 20260507150347 | 85 | 287 | 3.5 | 7.0 | 0.00 | 0.00 | 0.00 | 82 | 1019.0 |
| 20260507145330 | 85 | 309 | 3.5 | 7.8 | 0.00 | 0.00 | 0.00 | 83 | 1018.9 |
| 20260507144329 | 85 | 255 | 2.6 | 7.0 | 0.00 | 0.00 | 0.00 | 82 | 1018.9 |
| 20260507143325 | 85 | 315 | 3.5 | 7.0 | 0.00 | 0.00 | 0.00 | 82 | 1018.7 |
| 20260507142322 | 85 | 275 | 3.5 | 7.0 | 0.00 | 0.00 | 0.00 | 82 | 1018.6 |
| 20260507141321 | 85 | 269 | 3.5 | 7.0 | 0.00 | 0.00 | 0.00 | 83 | 1018.7 |
| 20260507140347 | 85 | 263 | 3.5 | 7.0 | 0.00 | 0.00 | 0.00 | 83 | 1018.7 |
| 20260507135331 | 85 | 274 | 1.7 | 7.8 | 0.00 | 0.00 | 0.00 | 81 | 1018.7 |
| 20260507134326 | 85 | 360 | 0.9 | 7.0 | 0.00 | 0.00 | 0.00 | 81 | 1018.6 |
| 20260507133326 | 85 | 247 | 3.5 | 5.2 | 0.00 | 0.00 | 0.00 | 82 | 1018.5 |
| 20260507132322 | 85 | 268 | 3.5 | 7.0 | 0.00 | 0.00 | 0.00 | 82 | 1018.4 |
| 20260507131318 | 85 | 300 | 0.0 | 6.1 | 0.00 | 0.00 | 0.00 | 82 | 1018.4 |
| 20260507130404 | 84 | 293 | 1.7 | 6.1 | 0.00 | 0.00 | 0.00 | 83 | 1018.2 |
| 20260507125330 | 84 | 283 | 2.6 | 7.0 | 0.00 | 0.00 | 0.00 | 83 | 1018.2 |
| 20260507124326 | 84 | 295 | 1.7 | 7.0 | 0.00 | 0.00 | 0.00 | 84 | 1018.1 |
| 20260507123343 | 83 | 350 | 2.6 | 6.1 | 0.00 | 0.00 | 0.00 | 85 | 1018.2 |
| 20260507122322 | 83 | 295 | 3.5 | 5.2 | 0.00 | 0.00 | 0.00 | 85 | 1018.0 |
| 20260507121317 | 83 | 288 | 3.5 | 6.1 | 0.00 | 0.00 | 0.00 | 84 | 1018.0 |
| 20260507120344 | 83 | 298 | 1.7 | 7.0 | 0.00 | 0.00 | 0.00 | 86 | 1018.0 |
| 20260507115346 | 82 | 273 | 0.0 | 4.3 | 0.00 | 0.00 | 0.00 | 87 | 1018.0 |
| 20260507114325 | 82 | 299 | 1.7 | 5.2 | 0.00 | 0.00 | 0.00 | 87 | 1018.0 |
| 20260507113321 | 81 | 288 | 1.7 | 7.0 | 0.00 | 0.00 | 0.00 | 88 | 1017.8 |
| 20260507112318 | 80 | 264 | 1.7 | 7.0 | 0.00 | 0.00 | 0.00 | 88 | 1017.4 |
| 20260507111317 | 80 | 276 | 4.3 | 7.8 | 0.00 | 0.00 | 0.00 | 88 | 1017.4 |
| 20260507110344 | 80 | 330 | 2.6 | 8.7 | 0.00 | 0.00 | 0.00 | 88 | 1017.3 |
| 20260507105326 | 80 | 250 | 3.5 | 7.8 | 0.00 | 0.00 | 0.00 | 88 | 1017.2 |
| 20260507104322 | 80 | 300 | 4.3 | 7.8 | 0.00 | 0.00 | 0.00 | 88 | 1017.0 |
| 20260507103321 | 80 | 324 | 4.3 | 8.7 | 0.00 | 0.00 | 0.00 | 88 | 1017.0 |
| 20260507102318 | 80 | 323 | 3.5 | 9.6 | 0.00 | 0.00 | 0.00 | 88 | 1016.8 |
| 20260507101333 | 80 | 247 | 3.5 | 10.4 | 0.00 | 0.00 | 0.00 | 88 | 1016.6 |
| 20260507100343 | 80 | 270 | 4.3 | 8.7 | 0.00 | 0.00 | 0.00 | 87 | 1016.6 |
| 20260507095326 | 80 | 263 | 6.1 | 10.4 | 0.00 | 0.00 | 0.00 | 87 | 1016.6 |
| 20260507094322 | 80 | 274 | 3.5 | 10.4 | 0.00 | 0.00 | 0.00 | 87 | 1016.6 |
| 20260507093338 | 80 | 271 | 5.2 | 9.6 | 0.00 | 0.00 | 0.00 | 87 | 1016.4 |
| 20260507092336 | 80 | 275 | 5.2 | 11.3 | 0.00 | 0.00 | 0.00 | 87 | 1016.3 |
| 20260507091331 | 80 | 265 | 4.3 | 9.6 | 0.00 | 0.00 | 0.00 | 87 | 1016.4 |
| 20260507090357 | 80 | 263 | 3.5 | 9.6 | 0.00 | 0.00 | 0.00 | 87 | 1016.3 |
| 20260507085319 | 80 | 262 | 7.0 | 11.3 | 0.00 | 0.00 | 0.00 | 86 | 1016.3 |
| 20260507084317 | 80 | 265 | 7.0 | 12.2 | 0.00 | 0.00 | 0.00 | 86 | 1016.2 |
| 20260507083332 | 80 | 253 | 4.3 | 11.3 | 0.00 | 0.00 | 0.00 | 86 | 1016.3 |
| 20260507082327 | 80 | 282 | 4.3 | 13.0 | 0.00 | 0.00 | 0.00 | 86 | 1016.2 |
| 20260507081322 | 80 | 284 | 4.3 | 13.0 | 0.00 | 0.00 | 0.00 | 87 | 1016.3 |
| 20260507080333 | 80 | 254 | 5.2 | 12.2 | 0.00 | 0.00 | 0.00 | 85 | 1016.4 |
| 20260507075335 | 80 | 253 | 6.1 | 12.2 | 0.00 | 0.00 | 0.00 | 85 | 1016.5 |
| 20260507074330 | 80 | 261 | 7.0 | 13.0 | 0.00 | 0.00 | 0.00 | 85 | 1016.5 |
| 20260507073330 | 80 | 279 | 7.0 | 11.3 | 0.00 | 0.00 | 0.00 | 86 | 1016.4 |
| 20260507072326 | 80 | 254 | 6.1 | 10.4 | 0.00 | 0.00 | 0.00 | 86 | 1016.5 |
| 20260507071341 | 80 | 255 | 7.0 | 12.2 | 0.00 | 0.00 | 0.00 | 86 | 1016.8 |
| 20260507070407 | 80 | 282 | 7.0 | 11.3 | 0.00 | 0.00 | 0.00 | 86 | 1017.0 |
| 20260507065332 | 80 | 261 | 6.1 | 12.2 | 0.00 | 0.00 | 0.00 | 86 | 1017.0 |
| 20260507064328 | 80 | 270 | 5.2 | 10.4 | 0.00 | 0.00 | 0.00 | 86 | 1017.1 |
| 20260507063323 | 80 | 263 | 6.1 | 10.4 | 0.00 | 0.00 | 0.00 | 86 | 1017.2 |
| 20260507062318 | 80 | 274 | 7.0 | 11.3 | 0.00 | 0.00 | 0.00 | 84 | 1017.4 |
| 20260507061357 | 80 | 258 | 6.1 | 11.3 | 0.00 | 0.00 | 0.00 | 86 | 1017.4 |
| 20260507060342 | 80 | 251 | 8.7 | 13.0 | 0.00 | 0.00 | 0.00 | 85 | 1017.2 |
| 20260507055324 | 80 | 267 | 7.8 | 12.2 | 0.00 | 0.00 | 0.00 | 86 | 1017.5 |
| 20260507054339 | 80 | 264 | 4.3 | 10.4 | 0.00 | 0.00 | 0.00 | 85 | 1017.6 |
| 20260507053336 | 80 | 292 | 5.2 | 12.2 | 0.00 | 0.00 | 0.00 | 85 | 1017.8 |
| 20260507052332 | 80 | 259 | 7.0 | 11.3 | 0.00 | 0.00 | 0.00 | 85 | 1017.9 |
| 20260507051327 | 80 | 219 | 5.2 | 10.4 | 0.00 | 0.00 | 0.00 | 84 | 1017.9 |
| 20260507050337 | 80 | 243 | 5.2 | 10.4 | 0.00 | 0.00 | 0.00 | 85 | 1018.0 |
| 20260507045339 | 80 | 255 | 6.1 | 10.4 | 0.00 | 0.00 | 0.00 | 85 | 1018.1 |
| 20260507044333 | 80 | 248 | 5.2 | 9.6 | 0.00 | 0.00 | 0.00 | 84 | 1018.2 |
| 20260507043329 | 80 | 254 | 7.0 | 10.4 | 0.00 | 0.00 | 0.00 | 84 | 1018.3 |
| 20260507042329 | 80 | 263 | 6.1 | 10.4 | 0.00 | 0.00 | 0.00 | 84 | 1018.3 |
| 20260507041324 | 80 | 262 | 6.1 | 9.6 | 0.00 | 0.00 | 0.00 | 85 | 1018.4 |
| 20260507040331 | 80 | 227 | 6.1 | 10.4 | 0.00 | 0.00 | 0.00 | 85 | 1018.6 |
| 20260507035354 | 81 | 288 | 6.1 | 11.3 | 0.00 | 0.00 | 0.00 | 85 | 1018.5 |
| 20260507034333 | 81 | 276 | 7.8 | 12.2 | 0.00 | 0.00 | 0.00 | 85 | 1018.4 |
| 20260507033328 | 81 | 237 | 6.1 | 9.6 | 0.00 | 0.00 | 0.00 | 85 | 1018.4 |
| 20260507032439 | 81 | 236 | 6.1 | 10.4 | 0.00 | 0.00 | 0.00 | 85 | 1018.4 |
| 20260507031325 | 81 | 247 | 5.2 | 8.7 | 0.00 | 0.00 | 0.00 | 85 | 1018.5 |
| 20260507030332 | 81 | 237 | 4.3 | 9.6 | 0.00 | 0.00 | 0.00 | 85 | 1018.3 |
| 20260507025334 | 81 | 212 | 6.1 | 9.6 | 0.00 | 0.00 | 0.00 | 85 | 1018.2 |
| 20260507024329 | 81 | 224 | 4.3 | 11.3 | 0.00 | 0.00 | 0.00 | 85 | 1018.0 |
| 20260507023331 | 81 | 255 | 3.5 | 9.6 | 0.00 | 0.00 | 0.00 | 85 | 1018.0 |
| 20260507022328 | 81 | 238 | 4.3 | 9.6 | 0.00 | 0.00 | 0.00 | 85 | 1018.0 |
| 20260507021322 | 81 | 217 | 5.2 | 10.4 | 0.00 | 0.00 | 0.00 | 85 | 1018.0 |
| 20260507020333 | 81 | 222 | 4.3 | 8.7 | 0.00 | 0.00 | 0.00 | 85 | 1017.9 |
| 20260507015355 | 81 | 239 | 4.3 | 9.6 | 0.00 | 0.00 | 0.00 | 85 | 1017.7 |
| 20260507014329 | 81 | 220 | 4.3 | 8.7 | 0.00 | 0.00 | 0.00 | 85 | 1017.8 |
| 20260507013325 | 81 | 232 | 4.3 | 8.7 | 0.00 | 0.00 | 0.00 | 85 | 1017.9 |
| 20260507012326 | 81 | 268 | 1.7 | 7.8 | 0.00 | 0.00 | 0.00 | 85 | 1017.7 |
| 20260507011321 | 81 | 241 | 3.5 | 7.0 | 0.00 | 0.00 | 0.00 | 84 | 1017.7 |
| 20260507010348 | 81 | 265 | 3.5 | 7.0 | 0.00 | 0.00 | 0.00 | 85 | 1017.7 |
| 20260507005335 | 81 | 234 | 3.5 | 7.0 | 0.00 | 0.00 | 0.00 | 84 | 1017.8 |
| 20260507004330 | 81 | 236 | 3.5 | 7.0 | 0.00 | 0.00 | 0.00 | 84 | 1017.9 |
| 20260507003326 | 81 | 251 | 2.6 | 6.1 | 0.00 | 0.00 | 0.00 | 84 | 1017.9 |
| 20260507002326 | 81 | 274 | 2.6 | 7.0 | 0.00 | 0.00 | 0.00 | 84 | 1017.6 |
| 20260507001322 | 82 | 273 | 3.5 | 7.8 | 0.00 | 0.00 | 0.00 | 84 | 1017.5 |
| 20260507000350 | 82 | 255 | 3.5 | 5.2 | 0.00 | 0.00 | 0.00 | 83 | 1017.6 |
| 20260506235330 | 82 | 292 | 1.7 | 7.0 | 0.00 | 0.00 | 0.00 | 83 | 1017.7 |
| 20260506234330 | 82 | 243 | 1.7 | 6.1 | 0.00 | 0.00 | 0.00 | 83 | 1017.6 |
| 20260506233325 | 83 | 246 | 2.6 | 7.0 | 0.00 | 0.00 | 0.00 | 82 | 1017.5 |
| 20260506232321 | 84 | 276 | 2.6 | 7.0 | 0.00 | 0.00 | 0.00 | 81 | 1017.5 |
| 20260506231320 | 84 | 270 | 1.7 | 7.8 | 0.00 | 0.00 | 0.00 | 81 | 1017.5 |
| 20260506230346 | 84 | 303 | 2.6 | 7.0 | 0.00 | 0.00 | 0.00 | 80 | 1017.4 |
| 20260506225329 | 84 | 285 | 2.6 | 7.0 | 0.00 | 0.00 | 0.00 | 80 | 1017.4 |
| 20260506224324 | 84 | 332 | 2.6 | 7.0 | 0.00 | 0.00 | 0.00 | 80 | 1017.3 |
| 20260506223324 | 84 | 254 | 3.5 | 7.0 | 0.00 | 0.00 | 0.00 | 79 | 1017.2 |
| 20260506222340 | 85 | 264 | 0.9 | 6.1 | 0.00 | 0.00 | 0.00 | 79 | 1017.1 |
| 20260506221335 | 85 | 278 | 0.9 | 7.0 | 0.00 | 0.00 | 0.00 | 80 | 1017.1 |
| 20260506220346 | 85 | 261 | 1.7 | 6.1 | 0.00 | 0.00 | 0.00 | 79 | 1017.0 |
| 20260506215329 | 85 | 286 | 0.9 | 7.0 | 0.00 | 0.00 | 0.00 | 79 | 1017.0 |
| 20260506214324 | 85 | 250 | 3.5 | 6.1 | 0.00 | 0.00 | 0.00 | 79 | 1017.0 |